FW0019 Weather Reports


Display with metric or nautical units.
time (UTC)temp
F
wind
direction
speed
MPH
gust
MPH
rain 1hr
in
rain 24hr
in
rain mn
in
humidity
%
barometer
mb
20260904131536 57 103 5.0 13.0 0.00 0.00 0.00 17 876.7
20260904130016 57 110 6.0 12.0 0.00 0.00 0.00 18 876.6
20260904124516 57 98 7.0 15.0 0.00 0.00 0.00 20 876.5
20260904123014 57 111 7.0 13.0 0.00 0.00 0.00 20 876.4
20260904121513 57 80 5.0 12.0 0.00 0.00 0.00 22 876.5
20260904120019 57 117 5.0 14.0 0.00 0.00 0.00 22 876.5
20260904114511 57 65 7.0 13.0 0.00 0.00 0.00 23 876.5
20260904113030 57 92 4.0 11.0 0.00 0.00 0.00 26 876.5
20260904111509 56 85 5.0 11.0 0.00 0.00 0.00 28 876.7
20260904110008 56 109 3.0 8.0 0.00 0.00 0.00 32 876.6
20260904104507 56 76 3.0 9.0 0.00 0.00 0.00 38 876.5
20260904103004 56 69 2.0 10.0 0.00 0.00 0.00 39 876.5
20260904101502 57 111 4.0 9.0 0.00 0.00 0.00 39 876.5
20260904100110 58 68 3.0 9.0 0.00 0.00 0.00 39 876.5
20260904094609 58 95 5.0 9.0 0.00 0.00 0.00 40 876.5
20260904093103 58 107 4.0 9.0 0.00 0.00 0.00 39 876.4
20260904091611 58 102 4.0 10.0 0.00 0.00 0.00 36 876.6
20260904090057 58 130 4.0 8.0 0.00 0.00 0.00 36 876.6
20260904084553 59 60 1.0 5.0 0.00 0.00 0.00 36 876.8
20260904083050 59 66 1.0 5.0 0.00 0.00 0.00 34 877.0
20260904081550 59 63 1.0 6.0 0.00 0.00 0.00 35 877.0
20260904080046 59 96 2.0 8.0 0.00 0.00 0.00 32 877.2
20260904074548 58 78 2.0 7.0 0.00 0.00 0.00 28 877.3
20260904073048 58 78 2.0 5.0 0.00 0.00 0.00 28 877.3
20260904071540 58 85 3.0 5.0 0.00 0.00 0.00 30 877.3
20260904070037 59 103 2.0 5.0 0.00 0.00 0.00 31 877.3
20260904064533 59 75 2.0 8.0 0.00 0.00 0.00 36 877.3
20260904063028 59 107 0.0 8.0 0.00 0.00 0.00 39 877.2
20260904061523 60 136 0.0 0.0 0.00 0.00 0.00 40 877.3
20260904060020 60 83 1.0 5.0 0.00 0.00 0.00 39 877.3
20260904054533 61 105 4.0 8.0 0.00 0.00 0.00 38 877.4
20260904053015 60 13 0.0 4.0 0.00 0.00 0.00 40 877.3
20260904051512 58 98 0.0 2.0 0.00 0.00 0.00 43 877.5
20260904050003 58 98 0.0 3.0 0.00 0.00 0.00 44 877.5
20260904044558 57 98 0.0 0.0 0.00 0.00 0.00 45 877.6
20260904043057 57 98 0.0 0.0 0.00 0.00 0.00 45 877.5
20260904041548 58 98 0.0 0.0 0.00 0.00 0.00 45 877.6
20260904040044 59 98 0.0 0.0 0.00 0.00 0.00 48 877.5
20260904034540 57 87 1.0 3.0 0.00 0.00 0.00 48 877.3
20260904033035 57 312 0.0 1.0 0.00 0.00 0.00 69 877.3
20260904031531 57 312 0.0 0.0 0.00 0.00 0.00 72 877.1
20260904030026 57 80 0.0 2.0 0.00 0.00 0.00 73 877.1
20260904024533 58 114 3.0 8.0 0.00 0.00 0.00 77 877.0
20260904023017 58 108 5.0 9.0 0.00 0.00 0.00 75 876.9
20260904021518 60 120 5.0 10.0 0.00 0.00 0.00 73 877.0
20260904020009 61 150 5.0 13.0 0.00 0.00 0.00 69 876.9
20260904014505 62 113 6.0 11.0 0.00 0.00 0.00 67 877.0
20260904013121 63 161 8.0 14.0 0.00 0.00 0.00 64 877.0
20260904011556 64 148 9.0 15.0 0.00 0.00 0.00 61 877.0
20260904010105 65 107 10.0 17.0 0.00 0.00 0.00 59 877.1
20260904004547 67 114 9.0 17.0 0.00 0.00 0.00 56 877.1
20260904003044 68 172 10.0 18.0 0.00 0.00 0.00 53 877.0
20260904001539 69 122 9.0 17.0 0.00 0.00 0.00 53 877.1
20260904000033 69 115 10.0 17.0 0.00 0.00 0.00 52 877.1
20260903234539 70 150 8.0 18.0 0.00 0.00 0.00 52 877.1
20260903233031 70 154 12.0 19.0 0.00 0.00 0.00 51 877.3
20260903231519 71 175 11.0 18.0 0.00 0.00 0.00 51 877.4
20260903230018 71 145 8.0 19.0 0.00 0.00 0.00 51 877.5
20260903224512 72 144 10.0 22.0 0.00 0.00 0.00 49 877.7
20260903223006 72 94 12.0 21.0 0.00 0.00 0.00 47 877.9
20260903221502 73 158 11.0 18.0 0.00 0.00 0.00 47 878.0
20260903220058 73 111 11.0 20.0 0.00 0.00 0.00 43 877.9
20260903214554 74 116 8.0 14.0 0.00 0.00 0.00 33 878.1
20260903213051 74 140 11.0 18.0 0.00 0.00 0.00 29 878.2
20260903211602 74 126 9.0 18.0 0.00 0.00 0.00 28 878.3
20260903210041 75 123 10.0 18.0 0.00 0.00 0.00 27 878.3
20260903204537 74 121 11.0 23.0 0.00 0.00 0.00 27 878.3
20260903203033 74 147 11.0 20.0 0.00 0.00 0.00 25 878.2
20260903201528 74 156 8.0 21.0 0.00 0.00 0.00 25 878.5
20260903200024 74 163 10.0 19.0 0.00 0.00 0.00 23 878.6
20260903194520 73 166 10.0 20.0 0.00 0.00 0.00 22 878.6
20260903193015 73 146 10.0 25.0 0.00 0.00 0.00 22 878.7
20260903191519 73 154 10.0 16.0 0.00 0.00 0.00 21 878.9
20260903190111 72 150 8.0 17.0 0.00 0.00 0.00 22 879.0
20260903184502 72 130 11.0 18.0 0.00 0.00 0.00 21 879.1
20260903183102 71 73 10.0 17.0 0.00 0.00 0.00 21 879.4
20260903181552 71 107 9.0 17.0 0.00 0.00 0.00 21 879.4
20260903180050 71 136 10.0 16.0 0.00 0.00 0.00 22 879.4
20260903174545 70 155 10.0 16.0 0.00 0.00 0.00 23 879.4
20260903173041 69 159 6.0 15.0 0.00 0.00 0.00 22 879.4
20260903171538 68 133 7.0 13.0 0.00 0.00 0.00 23 879.3
20260903170033 68 176 6.0 13.0 0.00 0.00 0.00 24 879.3
20260903164527 68 165 9.0 13.0 0.00 0.00 0.00 26 879.1
20260903163023 67 149 8.0 14.0 0.00 0.00 0.00 27 879.1
20260903161517 66 119 6.0 12.0 0.00 0.00 0.00 30 879.1
20260903160013 65 159 8.0 14.0 0.00 0.00 0.00 33 879.0
20260903154509 64 118 7.0 15.0 0.00 0.00 0.00 35 878.9
20260903153003 64 135 8.0 13.0 0.00 0.00 0.00 35 878.8
20260903151600 63 114 7.0 13.0 0.00 0.00 0.00 35 878.9
20260903150055 62 140 7.0 11.0 0.00 0.00 0.00 35 878.9
20260903144553 61 140 6.0 10.0 0.00 0.00 0.00 33 878.8
20260903143048 59 117 4.0 8.0 0.00 0.00 0.00 31 878.8
20260903141543 58 109 4.0 8.0 0.00 0.00 0.00 29 878.6
20260903140044 58 118 6.0 10.0 0.00 0.00 0.00 27 878.4
20260903134534 57 100 6.0 11.0 0.00 0.00 0.00 26 878.2
20260903133029 56 116 6.0 9.0 0.00 0.00 0.00 30 878.1